sat.trackr.live / text

‹ back to catalog

STARLINK-34859

NORAD 65348 · 2025-189AB

PAYLOAD ACTIVE UNKNOWN

§ Identity

Operator
Country
US
Launch date
2025-08-27
Launch site
AFETR
Launch vehicle
Mass (kg)
RCS (m²)

Purposes: comms

External: N2YO · Heavens-Above · Gunter

§ Orbital elements

Epoch: 2026-05-24T21:45:37.165824Z

Period
94.11 min
Inclination
53.1605°
Eccentricity
0.0001344
Mean motion
15.30203352 rev/d
Perigee alt
474.3 km
Apogee alt
476.1 km
Semi-major
6,853.3 km
B*
3.6111e-4
RAAN
212.8825°
Arg perigee
86.6278°
Mean anomaly
273.4877°
Rev number
4,277

§ Raw data

STARLINK-348591 65348U 25189AB  26144.90668016  .00010352  00000+0  36111-3 0  99992 65348  53.1605 212.8825 0001344  86.6278 273.4877 15.30203352 42777

JSON: /api/v1/satellites/65348 · /tle

For live sub-satellite position, see the globe view (requires WebGL).

§ Visibility from observer

Set your observer location to see the next 7 days of passes ≥ 10°. The values pass through the URL so the page stays shareable.

No JS? Fill the form by hand. The geolocation button needs JavaScript.